EUTELSAT 36 WEST A

Last updated on Wed Dec 19 2018 00:08:33 GMT+0000 (Coordinated Universal Time)

1 27508U 02040A 18352.50619870 .00000006 00000-0 00000+0 0 9998 2 27508 0.4560 88.6382 0006269 241.0954 30.2476 0.98291583 59799

Satellite not in orbit

EUTELSAT 36 WEST A